This demonstration page uses our WeatherBlox Daily Observations layout. Learn more.

Left ArrowRight Arrow

34.74481, -87.66753

Hourly Observations for May 31, 2019

Temp ( °F °C ) Dew Point ( °F °C ) Humidity (%) Winds ( mph kmh ) Pressure ( in mb ) Visibility ( mi km ) Precip ( " mm )
12:53 am 00:53 Clear 73 22.8 67 19.4 81 81 Calm 29.90 1013 10 16 0.00 0.00
1:53 am 01:53 Mostly Clear 71 21.7 67 19.4 87 87 Calm 29.89 1012 10 16 0.00 0.00
2:53 am 02:53 Mostly Clear 70 21.1 66 18.9 87 87 Calm 29.90 1012 10 16 0.00 0.00
3:53 am 03:53 Mostly Clear 70 21.1 67 19.4 90 90 Calm 29.91 1013 10 16 0.00 0.00
4:53 am 04:53 Mostly Clear 68 20 66 18.9 93 93 Calm 29.93 1014 10 16 0.00 0.00
5:53 am 05:53 Sunny 68 20 65 18.3 90 90 Calm 29.95 1014 10 16 0.00 0.00
6:53 am 06:53 Sunny 71 21.7 67 19.4 87 87 Calm 29.96 1014 10 16 0.00 0.00
7:53 am 07:53 Mostly Cloudy 75 23.9 65 18.3 71 71 NW 3 6 29.97 1015 10 16 0.00 0.00
8:53 am 08:53 Mostly Sunny 79 26.1 62 16.7 56 56 VRB 3 6 29.98 1015 10 16 0.00 0.00
9:53 am 09:53 Sunny 83 28.3 57 13.9 41 41 NNW 7 11 29.97 1015 10 16 0.00 0.00
10:53 am 10:53 Sunny 85 29.4 54 12.2 35 35 WNW 8 13 29.97 1015 10 16 0.00 0.00
11:53 am 11:53 Sunny 87 30.6 54 12.2 32 32 NW 7 11 29.97 1015 10 16 0.00 0.00
12:53 pm 12:53 Sunny 89 31.7 52 11.1 28 28 W 9 15 29.95 1014 10 16 0.00 0.00
1:53 pm 13:53 Mostly Sunny 89 31.7 51 10.6 27 27 WNW 8 13 29.93 1014 10 16 0.00 0.00
2:46 pm 14:46 Mostly Sunny 91 32.8 50 10 25 25 W 12 19 29.91 1013 10 16 0.00 0.00
2:53 pm 14:53 Mostly Sunny 91 32.8 51 10.6 26 26 W 13 20 29.92 1013 10 16 0.00 0.00
3:22 pm 15:22 Partly Cloudy 92 33.3 51 10.6 25 25 WNW 9 15 29.90 1013 10 16 0.00 0.00
3:53 pm 15:53 Mostly Cloudy 88 31.1 51 10.6 28 28 WNW 9 15 29.91 1013 10 16 0.00 0.00
4:53 pm 16:53 Mostly Sunny 90 32.2 52 11.1 27 27 W 10 17 29.89 1012 10 16 0.00 0.00
5:53 pm 17:53 Sunny 88 31.1 53 11.7 30 30 WNW 10 17 29.88 1012 10 16 0.00 0.00
6:53 pm 18:53 Mostly Sunny 84 28.9 54 12.2 36 36 WNW 6 9 29.90 1012 10 16 0.00 0.00
7:53 pm 19:53 Sunny 80 26.7 56 13.3 44 44 NNW 3 6 29.89 1012 10 16 0.00 0.00
8:53 pm 20:53 Mostly Cloudy 75 23.9 60 15.6 60 60 Calm 29.91 1013 10 16 0.00 0.00
9:53 pm 21:53 Mostly Cloudy 74 23.3 62 16.7 67 67 Calm 29.92 1013 10 16 0.00 0.00
10:53 pm 22:53 Clear 74 23.3 61 16.1 64 64 Calm 29.92 1013 10 16 0.00 0.00
11:53 pm 23:53 Clear 72 22.2 60 15.6 66 66 Calm 29.91 1013 10 16 0.00 0.00

Powered by AerisWeather